Weather in Kuzino

Russia / Sverdlovsk Oblast     57°01′08″N   59°26′22″E
temp.,
°C
wind,
m/s
gust,
m/s
humid.,
%
clouds,
%
prec.,
mm/h
press.,
hPa
HPBL,
m
23 january, sat
sat2323:00−31ene239763 0.1 102885
02:00−32e25970 0.0 103090
05:00−33e23974 0.0 103369
08:00−33e249775 0.0 103490
11:00−32e239565 0.0 1035110
14:00−26ese239392 0.0 1034219
17:00−26e1296100 0.0 103367
20:00−25e1297100 0.0 103484
24 january, sun
sun2423:00−24ese1299100 0.2 103380
02:00−23e2399100 0.6 1030111
05:00−23e2498100 1.2 1030141
08:00−25e4798100 0.4 1031230
11:00−19ese2397100 0.7 1030133
14:00−22ese5995100 0.1 1032305
17:00−22ese5997100 0.5 1031312
20:00−10ssw2696100 0.4 1025205
25 january, mon
mon2523:00−7wsw31094100 0.9 1025380
02:00−8w2796100 0.1 1025215
05:00−18e1198100 1.1 102863
08:00−6wsw129799 0.1 102623
11:00−13e1196100 1.1 102963
14:00−9ene2295100 0.7 1029118
17:00+1wsw41098100 1.4 1027539
20:00−1wsw51094100 0.3 1028544
26 january, tue
tue2623:00−3sw3897100 1.0 1030315
02:00−2wsw4996100 0.9 1030487
05:00−3wsw41193100 0.3 1028636
08:00−4wsw51192100 0.1 1029634
11:00−2wsw499499 1.4 1030518
14:00−3wsw479298 0.1 1030537
17:00−3wsw41091100 0.1 1027759
20:00−4sw3994100 0.0 1029454
27 january, wed
wed2723:00−5wsw51191100 0.1 1026648
02:00−4wsw4993100 0.1 1028742
05:00−5wsw31094100 0.1 1028518
08:00−7wsw41291100 0.0 1025416
11:00−7wsw4119193 0.1 1027415
14:00−4wsw5108944 0.0 1027442
17:00−6wsw3794100 0.2 1026408
20:00−7wsw2796100 0.6 1028407